Location: Haliburton Scout Reserve
(45.0900°N, 78.3200°W)
Time: 18:05:02
(UTC-05:00)

Courier 1B - Pass Details

Date: 06 December 2023
Orbit: 962 x 1209 km, 28.3° (Epoch: 23 February)

Event Time Altitude Azimuth Distance (km) Brightness Sun altitude
Rises 12:20:41 0° 246° (WSW) 3,687 10.9 22.3°
Reaches altitude 10° 12:24:43 10° 224° (SW) 2,707 10.8 22.2°
Maximum altitude 12:28:01 14° 193° (SSW) 2,381 12.0 22.2°
Drops below altitude 10° 12:31:18 10° 162° (SSE) 2,682 11.2 22.1°
Sets 12:35:16 0° 139° (SE) 3,631 11.1 22.0°
